Dobrodošli na spletni strani vremenske postaje Senovo. Vse informacije so informativnega značaja, saj vremenska postaja ni del državne mreže meteoroloških postaj. AKTUALNIH OBVESTIL NI.


Posebna pozornost v zvezi z vremenskimi dogajanji ni potrebna.    Posebna pozornost v zvezi z vremenskimi dogajanji ni potrebna.

Pogled proti Armezu več informacij Pogled proti Armezu


Bohor več informacij Bohor


Radar strel več informacij blitzortung!


Radar padavin več informacij rain snow radar


Obiščite še:

Template documentation
and downloads

And another site



Weather Underground, zgodovina - Tekstovno

Dnevni povzetek za Juli 19, 2017 Enote:  Angleško    Metrično   Obe
« Predhodni Dan
Naslednji Dan »
Dnevni Tedenski Mesečni Letni Po meri
  Višja: Nižja: Povprečje:
Temperatura: TemperatureC °F 13.0 °F 22.6 °F
Točka rosišča: DewpointC °F 8.9 °F 11.5 °F
Vlažnost: Humidity % 27 % 53 %
Hitrost vetra: WindSpeedKMH mph 0.0 mph 1.8 mph
Sunki vetra: WindSpeedGustKMH mph - -
Veter:- - SW
Zračni tlak: PressurehPa in 1013.1 in -
Padavine: 0.0 in    
Historical Graphs
 
 
Tabelarni podarki za Juli 19, 2017
Čas Temperatura Točka rosišča Zračni tlak Veter Hitrost vetra Sunki vetra Vlažnost Intenziteta padavin (urna)
TemperatureC °F DewpointC °F PressurehPa in Calm     Humidity % HourlyPrecipMM in
00:02 16.7 °F 9.6 °F 1018.2 in Calm     63 % 0.0 in
00:07 16.6 °F 9.5 °F 1018.2 in Calm     63 % 0.0 in
00:12 16.5 °F 9.4 °F 1018.2 in Calm     63 % 0.0 in
00:17 16.4 °F 9.3 °F 1018.2 in Calm     63 % 0.0 in
00:22 16.3 °F 9.5 °F 1018.2 in Calm     64 % 0.0 in
00:27 16.2 °F 9.6 °F 1018.2 in Calm     65 % 0.0 in
00:32 16.1 °F 9.5 °F 1018.2 in Calm     65 % 0.0 in
00:37 16.0 °F 9.4 °F 1018.2 in Calm     65 % 0.0 in
00:42 15.9 °F 9.3 °F 1018.2 in Calm     65 % 0.0 in
00:47 15.8 °F 9.4 °F 1018.2 in Calm     66 % 0.0 in
00:52 15.7 °F 9.4 °F 1018.2 in Calm     66 % 0.0 in
00:57 15.6 °F 9.3 °F 1018.2 in Calm     66 % 0.0 in
01:02 15.5 °F 9.4 °F 1018.2 in Calm     67 % 0.0 in
01:07 15.4 °F 9.3 °F 1018.2 in Calm     67 % 0.0 in
01:08 15.4 °F 9.3 °F 1018.2 in Calm     67 % 0.0 in
01:13 15.4 °F 9.5 °F 1018.2 in Calm     68 % 0.0 in
01:18 15.3 °F 9.4 °F 1018.2 in Calm     68 % 0.0 in
01:20 15.3 °F 9.4 °F 1018.2 in Calm     68 % 0.0 in
01:25 15.2 °F 9.3 °F 1018.2 in Calm     68 % 0.0 in
01:30 15.2 °F 9.3 °F 1018.2 in Calm     68 % 0.0 in
01:35 15.1 °F 9.4 °F 1018.2 in Calm     69 % 0.0 in
01:40 15.0 °F 9.3 °F 1018.2 in Calm     69 % 0.0 in
01:45 14.9 °F 9.5 °F 1018.2 in Calm     70 % 0.0 in
01:50 14.9 °F 9.5 °F 1018.2 in Calm     70 % 0.0 in
01:55 14.8 °F 9.6 °F 1018.2 in Calm     71 % 0.0 in
02:00 14.7 °F 9.5 °F 1018.2 in Calm     71 % 0.0 in
02:05 14.6 °F 9.4 °F 1018.2 in Calm     71 % 0.0 in
02:10 14.5 °F 9.3 °F 1018.8 in Calm     71 % 0.0 in
02:15 14.5 °F 9.5 °F 1018.8 in Calm     72 % 0.0 in
02:20 14.4 °F 9.4 °F 1018.8 in Calm     72 % 0.0 in
02:25 14.4 °F 9.4 °F 1018.2 in Calm     72 % 0.0 in
02:30 14.3 °F 9.3 °F 1018.2 in Calm     72 % 0.0 in
02:35 14.2 °F 9.2 °F 1018.2 in Calm     72 % 0.0 in
02:40 14.2 °F 9.2 °F 1018.2 in Calm     72 % 0.0 in
02:45 14.1 °F 9.3 °F 1018.2 in Calm     73 % 0.0 in
02:50 14.0 °F 9.2 °F 1018.2 in Calm     73 % 0.0 in
02:55 14.0 °F 9.2 °F 1018.2 in Calm     73 % 0.0 in
02:58 14.0 °F 9.2 °F 1018.2 in Calm     73 % 0.0 in
03:03 13.9 °F 9.3 °F 1018.2 in Calm     74 % 0.0 in
03:05 13.9 °F 9.3 °F 1018.2 in Calm     74 % 0.0 in
03:10 13.8 °F 9.2 °F 1018.2 in Calm     74 % 0.0 in
03:15 13.8 °F 9.2 °F 1018.2 in Calm     74 % 0.0 in
03:20 13.7 °F 9.3 °F 1018.2 in Calm     75 % 0.0 in
03:25 13.7 °F 9.3 °F 1018.2 in Calm     75 % 0.0 in
03:30 13.7 °F 9.3 °F 1018.2 in Calm     75 % 0.0 in
03:35 13.6 °F 9.2 °F 1018.2 in Calm     75 % 0.0 in
03:40 13.6 °F 9.4 °F 1016.8 in Calm     76 % 0.0 in
03:45 13.5 °F 9.3 °F 1016.8 in Calm     76 % 0.0 in
03:50 13.5 °F 9.6 °F 1016.8 in Calm     77 % 0.0 in
03:55 13.5 °F 9.3 °F 1016.8 in Calm     76 % 0.0 in
04:00 13.5 °F 9.3 °F 1016.8 in Calm     76 % 0.0 in
04:05 13.4 °F 9.4 °F 1016.8 in Calm     77 % 0.0 in
04:10 13.4 °F 9.4 °F 1016.8 in Calm     77 % 0.0 in
04:15 13.3 °F 9.3 °F 1016.8 in Calm     77 % 0.0 in
04:20 13.3 °F 9.3 °F 1016.8 in Calm     77 % 0.0 in
04:25 13.3 °F 9.6 °F 1016.8 in Calm     78 % 0.0 in
04:30 13.2 °F 9.4 °F 1016.8 in Calm     78 % 0.0 in
04:35 13.2 °F 9.4 °F 1016.8 in Calm     78 % 0.0 in
04:40 13.1 °F 9.3 °F 1016.8 in Calm     78 % 0.0 in
04:45 13.1 °F 9.6 °F 1016.8 in Calm     79 % 0.0 in
04:50 13.1 °F 9.6 °F 1016.8 in Calm     79 % 0.0 in
04:55 13.1 °F 9.6 °F 1016.8 in Calm     79 % 0.0 in
05:00 13.1 °F 9.7 °F 1016.8 in Calm     80 % 0.0 in
05:05 13.0 °F 9.6 °F 1016.8 in Calm     80 % 0.0 in
05:10 13.0 °F 9.6 °F 1016.8 in Calm     80 % 0.0 in
05:15 13.0 °F 9.6 °F 1016.8 in Calm     80 % 0.0 in
05:20 13.1 °F 9.9 °F 1016.8 in Calm     81 % 0.0 in
05:25 13.1 °F 9.9 °F 1016.8 in Calm     81 % 0.0 in
05:30 13.1 °F 9.9 °F 1016.8 in Calm     81 % 0.0 in
05:35 13.2 °F 10.0 °F 1016.8 in Calm     81 % 0.0 in
05:40 13.2 °F 10.0 °F 1016.8 in Calm     81 % 0.0 in
05:45 13.2 °F 10.0 °F 1016.8 in Calm     81 % 0.0 in
05:50 13.3 °F 10.1 °F 1016.8 in Calm     81 % 0.0 in
05:55 13.4 °F 10.2 °F 1016.8 in Calm     81 % 0.0 in
06:00 13.5 °F 10.5 °F 1016.8 in Calm     82 % 0.0 in
06:05 13.6 °F 10.4 °F 1016.8 in Calm     81 % 0.0 in
06:10 13.6 °F 10.6 °F 1016.8 in Calm     82 % 0.0 in
06:15 13.7 °F 10.7 °F 1016.8 in Calm     82 % 0.0 in
06:20 13.8 °F 10.9 °F 1016.8 in Calm     83 % 0.0 in
06:25 13.9 °F 11.1 °F 1016.8 in Calm     83 % 0.0 in
06:30 14.0 °F 11.2 °F 1016.8 in Calm     83 % 0.0 in
06:35 14.1 °F 11.3 °F 1016.8 in Calm     83 % 0.0 in
06:40 14.2 °F 11.3 °F 1018.2 in Calm     83 % 0.0 in
06:46 14.3 °F 11.3 °F 1018.2 in Calm     82 % 0.0 in
06:51 14.4 °F 11.6 °F 1018.2 in Calm     83 % 0.0 in
06:56 14.5 °F 11.7 °F 1018.2 in Calm     83 % 0.0 in
07:01 14.6 °F 11.7 °F 1018.2 in Calm     83 % 0.0 in
07:06 14.7 °F 11.8 °F 1018.2 in Calm     83 % 0.0 in
07:11 14.8 °F 11.9 °F 1018.2 in Calm     83 % 0.0 in
07:16 14.9 °F 12.1 °F 1018.2 in Calm     83 % 0.0 in
07:21 15.1 °F 12.1 °F 1018.2 in Calm     82 % 0.0 in
07:26 15.3 °F 12.2 °F 1018.2 in Calm     82 % 0.0 in
07:31 15.6 °F 12.3 °F 1018.2 in Calm     81 % 0.0 in
07:36 15.8 °F 12.6 °F 1018.2 in Calm   1.4 mph 81 % 0.0 in
07:41 16.2 °F 12.9 °F 1018.2 in Calm   1.4 mph 81 % 0.0 in
07:46 16.3 °F 13.1 °F 1018.2 in ESE 0.8 mph 4.3 mph 81 % 0.0 in
07:51 16.7 °F 13.2 °F 1016.8 in ESE 1.9 mph 4.7 mph 80 % 0.0 in
07:56 17.0 °F 13.1 °F 1016.8 in ESE 2.6 mph 4.7 mph 78 % 0.0 in
08:01 17.4 °F 13.3 °F 1016.8 in ESE 1.9 mph 4.3 mph 77 % 0.0 in
08:06 17.8 °F 13.5 °F 1018.2 in SE 1.0 mph 4.0 mph 76 % 0.0 in
08:11 18.0 °F 13.3 °F 1018.2 in SE 0.6 mph 4.0 mph 74 % 0.0 in
08:16 18.3 °F 13.4 °F 1018.2 in SE 0.2 mph 2.6 mph 73 % 0.0 in
08:21 18.7 °F 13.6 °F 1016.8 in Calm     72 % 0.0 in
08:26 18.9 °F 13.5 °F 1016.8 in East 0.2 mph 3.5 mph 71 % 0.0 in
08:31 19.2 °F 13.8 °F 1016.8 in ESE 0.5 mph 3.5 mph 71 % 0.0 in
08:36 19.7 °F 14.1 °F 1018.2 in SE 0.8 mph 4.3 mph 70 % 0.0 in
08:41 20.1 °F 14.0 °F 1018.2 in ESE 0.6 mph 4.3 mph 68 % 0.0 in
08:46 20.7 °F 14.6 °F 1018.2 in ESE 0.2 mph 4.0 mph 68 % 0.0 in
08:51 21.3 °F 14.7 °F 1018.2 in South 2.9 mph 11.9 mph 66 % 0.0 in
08:56 22.0 °F 15.1 °F 1018.2 in SSW 5.8 mph 11.9 mph 65 % 0.0 in
09:01 22.5 °F 15.1 °F 1018.2 in SSW 5.3 mph 9.3 mph 63 % 0.0 in
09:06 23.0 °F 15.3 °F 1018.2 in SSW 4.7 mph 7.9 mph 62 % 0.0 in
09:11 23.4 °F 15.4 °F 1018.2 in SSW 3.9 mph 6.9 mph 61 % 0.0 in
09:16 23.8 °F 15.8 °F 1018.2 in South 3.5 mph 7.6 mph 61 % 0.0 in
09:21 24.3 °F 15.5 °F 1016.8 in South 4.3 mph 7.6 mph 58 % 0.0 in
09:26 24.7 °F 15.6 °F 1016.8 in South 4.8 mph 6.9 mph 57 % 0.0 in
09:31 25.0 °F 15.3 °F 1016.8 in SSW 4.8 mph 8.7 mph 55 % 0.0 in
09:32 25.1 °F 15.4 °F 1016.8 in SSW 5.3 mph 8.7 mph 55 % 0.0 in
09:37 25.4 °F 15.1 °F 1016.8 in SSW 5.0 mph 8.7 mph 53 % 0.0 in
09:42 25.8 °F 15.5 °F 1016.8 in SSW 5.1 mph 9.3 mph 53 % 0.0 in
09:47 26.1 °F 15.2 °F 1016.8 in South 4.8 mph 9.3 mph 51 % 0.0 in
09:52 26.1 °F 14.9 °F 1016.8 in SSW 4.5 mph 9.0 mph 50 % 0.0 in
09:57 26.4 °F 15.1 °F 1016.8 in SSW 4.5 mph 9.3 mph 50 % 0.0 in
10:02 26.9 °F 15.6 °F 1016.8 in SSE 4.3 mph 9.3 mph 50 % 0.0 in
10:07 27.2 °F 15.2 °F 1016.8 in South 4.5 mph 9.3 mph 48 % 0.0 in
10:12 27.5 °F 14.8 °F 1016.8 in SSW 5.3 mph 9.0 mph 46 % 0.0 in
10:14 27.6 °F 14.9 °F 1016.8 in SSW 5.5 mph 10.1 mph 46 % 0.0 in
10:19 27.8 °F 15.1 °F 1016.8 in SSW 5.8 mph 10.1 mph 46 % 0.0 in
10:24 28.1 °F 15.1 °F 1016.8 in SSW 5.1 mph 9.3 mph 45 % 0.0 in
10:29 28.3 °F 14.9 °F 1016.8 in SSW 4.2 mph 9.3 mph 44 % 0.0 in
10:34 28.5 °F 15.1 °F 1016.8 in South 4.2 mph 7.9 mph 44 % 0.0 in
10:39 28.7 °F 15.2 °F 1016.8 in South 3.4 mph 7.9 mph 44 % 0.0 in
10:44 28.9 °F 15.1 °F 1016.8 in WSW 3.4 mph 11.9 mph 43 % 0.0 in
10:49 29.0 °F 14.8 °F 1016.8 in WSW 4.7 mph 11.9 mph 42 % 0.0 in
10:54 29.1 °F 14.9 °F 1016.8 in SW 3.7 mph 9.3 mph 42 % 0.0 in
10:59 29.2 °F 14.9 °F 1016.8 in NW 3.1 mph 6.9 mph 42 % 0.0 in
11:04 29.2 °F 14.6 °F 1016.8 in North 3.1 mph 6.1 mph 41 % 0.0 in
11:09 29.2 °F 14.6 °F 1016.8 in North 3.7 mph 10.8 mph 41 % 0.0 in
11:14 29.4 °F 14.8 °F 1016.8 in WSW 6.6 mph 10.8 mph 41 % 0.0 in
11:19 29.7 °F 15.1 °F 1016.8 in SW 5.1 mph 10.5 mph 41 % 0.0 in
11:24 30.0 °F 15.3 °F 1016.8 in SW 3.4 mph 9.0 mph 41 % 0.0 in
11:29 30.3 °F 15.2 °F 1016.8 in SSW 4.2 mph 9.0 mph 40 % 0.0 in
11:34 30.4 °F 15.3 °F 1016.8 in SW 4.3 mph 12.2 mph 40 % 0.0 in
11:39 30.4 °F 15.3 °F 1016.1 in West 3.5 mph 12.2 mph 40 % 0.0 in
11:44 30.5 °F 15.0 °F 1016.1 in WNW 3.2 mph 9.7 mph 39 % 0.0 in
11:49 30.6 °F 15.1 °F 1016.1 in WSW 3.7 mph 9.7 mph 39 % 0.0 in
11:54 30.7 °F 15.2 °F 1016.1 in SW 4.5 mph 9.7 mph 39 % 0.0 in
11:59 31.0 °F 15.0 °F 1016.1 in SW 5.6 mph 10.1 mph 38 % 0.0 in
12:04 31.0 °F 15.0 °F 1016.1 in WNW 6.6 mph 11.9 mph 38 % 0.0 in
12:09 31.2 °F 15.2 °F 1016.1 in WNW 6.3 mph 15.4 mph 38 % 0.0 in
12:14 31.3 °F 14.4 °F 1016.1 in West 5.6 mph 15.4 mph 36 % 0.0 in
12:19 31.5 °F 14.6 °F 1016.1 in West 4.3 mph 9.3 mph 36 % 0.0 in
12:24 31.5 °F 13.7 °F 1015.1 in NNW 3.9 mph 11.9 mph 34 % 0.0 in
12:29 31.6 °F 13.8 °F 1015.1 in WSW 5.3 mph 11.9 mph 34 % 0.0 in
12:34 31.7 °F 13.4 °F 1015.1 in SSW 5.6 mph 10.5 mph 33 % 0.0 in
12:39 31.9 °F 14.1 °F 1016.1 in SW 5.1 mph 10.1 mph 34 % 0.0 in
12:44 32.0 °F 13.7 °F 1016.1 in SW 6.4 mph 15.8 mph 33 % 0.0 in
12:49 32.1 °F 13.3 °F 1016.1 in SW 7.1 mph 15.8 mph 32 % 0.0 in
12:54 32.3 °F 14.0 °F 1016.1 in SSW 5.6 mph 13.7 mph 33 % 0.0 in
12:59 32.5 °F 13.7 °F 1016.1 in SSW 5.5 mph 13.7 mph 32 % 0.0 in
13:04 32.5 °F 13.7 °F 1016.1 in South 5.3 mph 13.0 mph 32 % 0.0 in
13:09 32.7 °F 13.8 °F 1016.1 in SSW 4.8 mph 9.3 mph 32 % 0.0 in
13:14 32.8 °F 13.9 °F 1016.1 in West 4.3 mph 10.1 mph 32 % 0.0 in
13:19 32.7 °F 13.8 °F 1016.1 in WNW 5.1 mph 10.5 mph 32 % 0.0 in
13:24 32.8 °F 13.4 °F 1016.1 in SW 5.6 mph 12.2 mph 31 % 0.0 in
13:29 32.9 °F 13.6 °F 1016.1 in SW 5.3 mph 12.2 mph 31 % 0.0 in
13:34 33.1 °F 13.7 °F 1016.1 in SSW 4.7 mph 10.1 mph 31 % 0.0 in
13:39 33.0 °F 13.1 °F 1016.1 in SSW 4.7 mph 21.2 mph 30 % 0.0 in
13:44 32.9 °F 13.6 °F 1016.1 in SW 7.6 mph 21.2 mph 31 % 0.0 in
13:49 33.0 °F 13.1 °F 1016.1 in SW 8.7 mph 16.9 mph 30 % 0.0 in
13:54 33.2 °F 13.3 °F 1015.1 in SW 7.4 mph 14.0 mph 30 % 0.0 in
13:59 33.0 °F 12.6 °F 1015.1 in WNW 6.3 mph 14.0 mph 29 % 0.0 in
14:04 33.1 °F 13.2 °F 1015.1 in WNW 5.0 mph 10.1 mph 30 % 0.0 in
14:09 33.3 °F 13.4 °F 1014.1 in SW 5.1 mph 13.7 mph 30 % 0.0 in
14:14 33.4 °F 12.9 °F 1014.1 in WSW 5.6 mph 13.7 mph 29 % 0.0 in
14:19 33.3 °F 12.8 °F 1014.1 in WSW 4.3 mph 13.7 mph 29 % 0.0 in
14:22 33.5 °F 13.6 °F 1014.1 in WSW 3.9 mph 11.6 mph 30 % 0.0 in
14:27 33.6 °F 13.1 °F 1014.1 in SSW 6.3 mph 17.2 mph 29 % 0.0 in
14:32 33.8 °F 13.8 °F 1014.1 in WSW 7.6 mph 17.2 mph 30 % 0.0 in
14:37 33.8 °F 13.3 °F 1014.1 in WSW 6.4 mph 13.0 mph 29 % 0.0 in
14:42 33.6 °F 13.1 °F 1014.1 in SSW 5.3 mph 13.0 mph 29 % 0.0 in
14:47 33.7 °F 13.2 °F 1014.1 in SW 4.8 mph 12.2 mph 29 % 0.0 in
14:52 33.9 °F 13.4 °F 1013.1 in SSW 6.3 mph 12.2 mph 29 % 0.0 in
14:57 33.9 °F 13.4 °F 1013.1 in SSW 5.8 mph 11.9 mph 29 % 0.0 in
15:02 34.0 °F 12.9 °F 1013.1 in WSW 4.3 mph 10.8 mph 28 % 0.0 in
15:07 33.9 °F 12.8 °F 1013.1 in WNW 5.1 mph 10.1 mph 28 % 0.0 in
15:08 33.8 °F 12.7 °F 1013.1 in WNW 5.3 mph 10.1 mph 28 % 0.0 in
15:13 34.0 °F 12.9 °F 1013.1 in WSW 6.3 mph 10.1 mph 28 % 0.0 in
15:19 34.1 °F 13.0 °F 1013.1 in South 5.0 mph 10.5 mph 28 % 0.0 in
15:24 34.2 °F 13.1 °F 1015.1 in NW 4.5 mph 15.8 mph 28 % 0.0 in
15:29 34.2 °F 13.1 °F 1015.1 in West 5.3 mph 15.8 mph 28 % 0.0 in
15:34 34.3 °F 13.2 °F 1015.1 in SW 5.5 mph 15.4 mph 28 % 0.0 in
15:39 34.1 °F 13.0 °F 1014.1 in SSW 5.6 mph 9.7 mph 28 % 0.0 in
15:44 33.8 °F 13.3 °F 1014.1 in SW 4.3 mph 9.7 mph 29 % 0.0 in
15:49 33.7 °F 13.2 °F 1014.1 in SSW 2.1 mph 6.1 mph 29 % 0.0 in
15:54 33.9 °F 13.4 °F 1014.1 in SSW 1.8 mph 5.8 mph 29 % 0.0 in
15:59 33.9 °F 13.4 °F 1014.1 in ENE 2.7 mph 7.9 mph 29 % 0.0 in
16:04 34.1 °F 13.0 °F 1014.1 in South 4.0 mph 8.7 mph 28 % 0.0 in
16:09 33.7 °F 13.2 °F 1014.1 in WSW 4.8 mph 10.5 mph 29 % 0.0 in
16:14 33.8 °F 13.3 °F 1014.1 in WSW 4.3 mph 10.5 mph 29 % 0.0 in
16:19 33.9 °F 13.4 °F 1014.1 in SW 4.0 mph 6.9 mph 29 % 0.0 in
16:24 34.2 °F 13.1 °F 1014.1 in SSW 4.2 mph 9.3 mph 28 % 0.0 in
16:29 34.5 °F 13.3 °F 1014.1 in SW 4.2 mph 13.7 mph 28 % 0.0 in
16:34 34.5 °F 13.3 °F 1014.1 in WSW 3.9 mph 13.7 mph 28 % 0.0 in
16:39 34.5 °F 13.3 °F 1014.1 in West 4.5 mph 9.7 mph 28 % 0.0 in
16:44 34.5 °F 12.8 °F 1014.1 in NW 5.1 mph 9.3 mph 27 % 0.0 in
16:49 34.5 °F 12.8 °F 1014.1 in NNW 3.2 mph 9.3 mph 27 % 0.0 in
16:54 34.6 °F 12.9 °F 1013.1 in West 2.7 mph 9.0 mph 27 % 0.0 in
16:59 34.5 °F 12.8 °F 1013.1 in West 4.5 mph 10.5 mph 27 % 0.0 in
17:04 34.6 °F 12.9 °F 1013.1 in West 4.7 mph 10.5 mph 27 % 0.0 in
17:09 34.5 °F 12.8 °F 1013.1 in West 3.9 mph 10.1 mph 27 % 0.0 in
17:14 34.3 °F 12.6 °F 1013.1 in West 6.1 mph 16.9 mph 27 % 0.0 in
17:19 34.3 °F 12.6 °F 1013.1 in West 8.2 mph 16.9 mph 27 % 0.0 in
17:24 34.3 °F 12.6 °F 1013.1 in West 5.6 mph 13.0 mph 27 % 0.0 in
17:29 34.1 °F 12.4 °F 1013.1 in NW 4.5 mph 9.7 mph 27 % 0.0 in
17:34 34.1 °F 12.4 °F 1013.1 in NW 4.7 mph 13.0 mph 27 % 0.0 in
17:39 34.0 °F 12.4 °F 1013.1 in West 3.4 mph 13.0 mph 27 % 0.0 in
17:44 34.0 °F 12.4 °F 1013.1 in NW 2.9 mph 6.4 mph 27 % 0.0 in
17:49 33.7 °F 12.1 °F 1013.1 in NW 3.4 mph 6.9 mph 27 % 0.0 in
17:54 33.1 °F 11.6 °F 1013.1 in NW 4.5 mph 13.0 mph 27 % 0.0 in
17:59 32.6 °F 11.2 °F 1013.1 in WNW 5.0 mph 13.0 mph 27 % 0.0 in
18:04 32.2 °F 11.4 °F 1013.1 in WNW 2.6 mph 7.6 mph 28 % 0.0 in
18:09 31.8 °F 11.1 °F 1013.1 in West 1.3 mph 5.8 mph 28 % 0.0 in
18:10 31.7 °F 10.9 °F 1013.1 in WSW 1.0 mph 5.8 mph 28 % 0.0 in
18:20 31.0 °F 10.3 °F 1013.1 in WNW 2.1 mph 7.2 mph 28 % 0.0 in
18:25 30.7 °F 10.6 °F 1013.1 in WSW 1.1 mph 5.8 mph 29 % 0.0 in
18:35 30.4 °F 10.4 °F 1013.1 in WSW 3.1 mph 6.4 mph 29 % 0.0 in
18:40 30.3 °F 10.3 °F 1013.1 in SW 3.2 mph 6.4 mph 29 % 0.0 in
18:45 30.1 °F 10.1 °F 1013.1 in WSW 4.8 mph 16.6 mph 29 % 0.0 in
18:50 30.0 °F 9.5 °F 1013.1 in West 6.0 mph 16.6 mph 28 % 0.0 in
18:55 29.9 °F 9.9 °F 1014.1 in West 6.0 mph 11.9 mph 29 % 0.0 in
19:00 29.8 °F 9.8 °F 1014.1 in WSW 4.8 mph 10.1 mph 29 % 0.0 in
19:05 29.7 °F 9.8 °F 1014.1 in WSW 4.7 mph 8.7 mph 29 % 0.0 in
19:10 29.6 °F 9.7 °F 1014.1 in SW 3.7 mph 8.7 mph 29 % 0.0 in
19:15 29.4 °F 9.5 °F 1014.1 in SW 2.9 mph 6.1 mph 29 % 0.0 in
19:20 29.2 °F 9.3 °F 1014.1 in WSW 3.5 mph 10.1 mph 29 % 0.0 in
19:25 29.0 °F 9.2 °F 1013.1 in WSW 4.0 mph 10.1 mph 29 % 0.0 in
19:30 28.8 °F 9.5 °F 1013.1 in WSW 4.2 mph 7.9 mph 30 % 0.0 in
19:35 28.6 °F 9.3 °F 1013.1 in WSW 3.1 mph 8.7 mph 30 % 0.0 in
19:40 28.4 °F 9.2 °F 1014.1 in WSW 2.1 mph 8.7 mph 30 % 0.0 in
19:45 28.0 °F 9.3 °F 1014.1 in WSW 2.1 mph 5.5 mph 31 % 0.0 in
19:50 27.5 °F 9.3 °F 1014.1 in West 1.3 mph 5.8 mph 32 % 0.0 in
19:55 27.3 °F 9.2 °F 1014.1 in WNW 1.4 mph 9.3 mph 32 % 0.0 in
20:00 26.8 °F 9.2 °F 1014.1 in WNW 1.8 mph 9.3 mph 33 % 0.0 in
20:05 26.4 °F 9.3 °F 1014.1 in NNW 0.8 mph 3.2 mph 34 % 0.0 in
20:10 26.0 °F 8.9 °F 1014.1 in Calm     34 % 0.0 in
20:15 25.7 °F 9.1 °F 1014.1 in NNW 0.6 mph 4.3 mph 35 % 0.0 in
20:18 25.4 °F 9.2 °F 1014.1 in NNW 1.0 mph 4.3 mph 36 % 0.0 in
20:23 25.2 °F 9.1 °F 1014.1 in NNW 1.4 mph 4.3 mph 36 % 0.0 in
20:28 24.7 °F 9.8 °F 1014.1 in NW 0.5 mph 3.2 mph 39 % 0.0 in
20:33 24.3 °F 10.2 °F 1014.1 in Calm   1.8 mph 41 % 0.0 in
20:38 24.1 °F 10.0 °F 1013.1 in Calm     41 % 0.0 in
20:43 23.8 °F 9.8 °F 1013.1 in WSW 0.2 mph 3.5 mph 41 % 0.0 in
20:48 23.5 °F 9.8 °F 1013.1 in WSW 0.2 mph 3.5 mph 42 % 0.0 in
20:53 23.2 °F 9.9 °F 1014.1 in NNE 0.2 mph 2.6 mph 43 % 0.0 in
20:58 23.1 °F 9.8 °F 1014.1 in West 0.5 mph 4.7 mph 43 % 0.0 in
21:03 22.9 °F 10.0 °F 1014.1 in WSW 1.0 mph 4.7 mph 44 % 0.0 in
21:08 22.6 °F 9.7 °F 1014.1 in WNW 0.6 mph 3.2 mph 44 % 0.0 in
21:13 22.5 °F 9.6 °F 1014.1 in NW 0.5 mph 4.0 mph 44 % 0.0 in
21:18 22.4 °F 9.9 °F 1014.1 in NW 0.6 mph 4.0 mph 45 % 0.0 in
21:23 22.2 °F 10.0 °F 1014.1 in NW 0.3 mph 4.0 mph 46 % 0.0 in
21:28 22.1 °F 9.9 °F 1014.1 in Calm     46 % 0.0 in
21:33 22.0 °F 10.2 °F 1014.1 in Calm     47 % 0.0 in
21:38 21.9 °F 10.1 °F 1014.1 in Calm     47 % 0.0 in
21:39 21.8 °F 10.0 °F 1018.2 in Calm     47 % 0.0 in
21:40 21.8 °F 10.0 °F 1014.1 in Calm     47 % 0.0 in
21:41 21.8 °F 10.3 °F 1014.1 in Calm     48 % 0.0 in
21:42 21.7 °F 9.9 °F 1014.1 in Calm     47 % 0.0 in
21:43 21.7 °F 9.9 °F 1014.1 in Calm     47 % 0.0 in
21:44 21.7 °F 10.2 °F 1014.1 in Calm     48 % 0.0 in
21:45 21.6 °F 10.1 °F 1014.1 in Calm     48 % 0.0 in
21:46 21.6 °F 10.1 °F 1014.1 in Calm     48 % 0.0 in
21:47 21.6 °F 10.1 °F 1014.1 in Calm     48 % 0.0 in
21:48 21.6 °F 10.1 °F 1014.1 in Calm     48 % 0.0 in
21:49 21.5 °F 10.3 °F 1014.1 in Calm     49 % 0.0 in
21:50 21.5 °F 10.3 °F 1014.1 in Calm     49 % 0.0 in
21:51 21.5 °F 10.3 °F 1014.1 in Calm     49 % 0.0 in
21:52 21.4 °F 10.2 °F 1014.1 in Calm     49 % 0.0 in
21:53 21.4 °F 10.2 °F 1014.1 in Calm     49 % 0.0 in
21:54 21.4 °F 10.2 °F 1014.1 in Calm     49 % 0.0 in
21:55 21.4 °F 10.2 °F 1014.1 in Calm     49 % 0.0 in
21:56 21.3 °F 10.2 °F 1014.1 in Calm     49 % 0.0 in
21:57 21.3 °F 10.2 °F 1014.1 in Calm     49 % 0.0 in
21:58 21.3 °F 10.2 °F 1014.1 in Calm     49 % 0.0 in
21:59 21.3 °F 10.2 °F 1014.1 in Calm     49 % 0.0 in
22:00 21.3 °F 10.2 °F 1014.1 in Calm     49 % 0.0 in
22:01 21.3 °F 10.2 °F 1014.1 in Calm   3.5 mph 49 % 0.0 in
22:02 21.3 °F 10.4 °F 1014.1 in NNE 0.2 mph 3.5 mph 50 % 0.0 in
22:03 21.3 °F 10.4 °F 1014.1 in NNE 0.3 mph 3.5 mph 50 % 0.0 in
22:04 21.2 °F 10.3 °F 1014.1 in NNE 0.3 mph 3.5 mph 50 % 0.0 in
22:05 21.2 °F 10.3 °F 1014.1 in North 0.3 mph 5.8 mph 50 % 0.0 in
22:06 21.2 °F 10.3 °F 1013.1 in North 0.8 mph 5.8 mph 50 % 0.0 in
22:07 21.2 °F 10.3 °F 1013.1 in North 1.0 mph 5.8 mph 50 % 0.0 in
22:08 21.2 °F 10.3 °F 1013.1 in North 1.0 mph 5.8 mph 50 % 0.0 in
22:09 21.2 °F 10.3 °F 1013.1 in North 1.0 mph 5.8 mph 50 % 0.0 in
22:10 21.2 °F 10.3 °F 1013.1 in NNW 1.0 mph 5.8 mph 50 % 0.0 in
22:11 21.2 °F 10.3 °F 1013.1 in NNW 1.0 mph 5.8 mph 50 % 0.0 in
22:12 21.1 °F 10.3 °F 1013.1 in NW 1.0 mph 5.8 mph 50 % 0.0 in
22:13 21.1 °F 10.3 °F 1013.1 in WNW 1.1 mph 5.8 mph 50 % 0.0 in
22:14 21.1 °F 10.3 °F 1013.1 in WNW 1.4 mph 5.8 mph 50 % 0.0 in
22:15 21.1 °F 10.3 °F 1013.1 in WSW 1.9 mph 6.9 mph 50 % 0.0 in
22:16 21.1 °F 10.3 °F 1013.1 in WSW 2.1 mph 6.9 mph 50 % 0.0 in
22:17 21.1 °F 10.3 °F 1013.1 in WSW 2.7 mph 6.9 mph 50 % 0.0 in
22:18 21.2 °F 10.3 °F 1013.1 in WSW 3.2 mph 6.9 mph 50 % 0.0 in
22:19 21.1 °F 10.6 °F 1013.1 in WSW 3.4 mph 6.9 mph 51 % 0.0 in
22:20 21.1 °F 10.6 °F 1013.1 in WSW 4.2 mph 6.9 mph 51 % 0.0 in
22:21 21.1 °F 10.6 °F 1014.1 in WSW 4.0 mph 6.9 mph 51 % 0.0 in
22:22 21.1 °F 10.6 °F 1014.1 in WSW 3.5 mph 6.9 mph 51 % 0.0 in
22:23 21.1 °F 10.6 °F 1014.1 in WSW 3.5 mph 6.9 mph 51 % 0.0 in
22:24 21.1 °F 10.6 °F 1014.1 in WSW 3.2 mph 9.3 mph 51 % 0.0 in
22:25 21.0 °F 10.5 °F 1014.1 in WSW 3.2 mph 9.3 mph 51 % 0.0 in
22:26 21.0 °F 10.5 °F 1014.1 in WSW 2.9 mph 9.3 mph 51 % 0.0 in
22:27 21.0 °F 10.8 °F 1014.1 in West 2.3 mph 9.3 mph 52 % 0.0 in
22:28 21.0 °F 10.8 °F 1014.1 in West 1.8 mph 9.3 mph 52 % 0.0 in
22:29 21.0 °F 10.8 °F 1014.1 in West 1.3 mph 9.3 mph 52 % 0.0 in
22:30 21.0 °F 10.8 °F 1014.1 in West 0.8 mph 9.3 mph 52 % 0.0 in
22:31 21.0 °F 10.8 °F 1014.1 in West 0.8 mph 9.3 mph 52 % 0.0 in
22:32 20.9 °F 10.9 °F 1014.1 in West 0.8 mph 9.3 mph 53 % 0.0 in
22:33 20.9 °F 10.9 °F 1014.1 in West 0.8 mph 9.3 mph 53 % 0.0 in
22:34 20.8 °F 10.9 °F 1014.1 in WNW 0.8 mph 4.7 mph 53 % 0.0 in
22:35 20.8 °F 11.2 °F 1014.1 in WNW 0.8 mph 4.7 mph 54 % 0.0 in
22:36 20.8 °F 11.2 °F 1014.1 in Calm   4.7 mph 54 % 0.0 in
22:37 20.8 °F 11.2 °F 1014.1 in Calm     54 % 0.0 in
22:38 20.8 °F 11.2 °F 1014.1 in Calm     54 % 0.0 in
22:39 20.7 °F 11.1 °F 1014.1 in Calm     54 % 0.0 in
22:40 20.7 °F 11.1 °F 1014.1 in Calm     54 % 0.0 in
22:41 20.7 °F 11.3 °F 1014.1 in Calm     55 % 0.0 in
22:42 20.6 °F 10.9 °F 1014.1 in Calm     54 % 0.0 in
22:43 20.6 °F 11.2 °F 1014.1 in Calm     55 % 0.0 in
22:44 20.6 °F 11.2 °F 1014.1 in Calm     55 % 0.0 in
22:45 20.6 °F 11.2 °F 1014.1 in Calm     55 % 0.0 in
22:46 20.5 °F 11.2 °F 1014.1 in Calm     55 % 0.0 in
22:47 20.5 °F 11.2 °F 1014.1 in Calm     55 % 0.0 in
22:48 20.5 °F 11.4 °F 1014.1 in Calm     56 % 0.0 in
22:49 20.5 °F 11.2 °F 1014.1 in Calm     55 % 0.0 in
22:50 20.4 °F 11.3 °F 1014.1 in Calm     56 % 0.0 in
22:51 20.4 °F 11.3 °F 1013.1 in Calm     56 % 0.0 in
22:52 20.4 °F 11.3 °F 1013.1 in Calm     56 % 0.0 in
22:53 20.4 °F 11.3 °F 1013.1 in Calm     56 % 0.0 in
22:54 20.4 °F 11.3 °F 1013.1 in Calm     56 % 0.0 in
22:55 20.3 °F 11.2 °F 1013.1 in Calm     56 % 0.0 in
22:56 20.3 °F 11.2 °F 1013.1 in Calm     56 % 0.0 in
22:57 20.3 °F 11.2 °F 1013.1 in Calm     56 % 0.0 in
22:58 20.3 °F 11.5 °F 1013.1 in Calm   5.8 mph 57 % 0.0 in
22:59 20.3 °F 11.5 °F 1013.1 in NW 0.3 mph 5.8 mph 57 % 0.0 in
23:00 20.3 °F 11.5 °F 1013.1 in NW 0.6 mph 5.8 mph 57 % 0.0 in
23:01 20.3 °F 11.5 °F 1013.1 in NW 1.1 mph 5.8 mph 57 % 0.0 in
23:02 20.3 °F 11.2 °F 1013.1 in NW 1.6 mph 5.8 mph 56 % 0.0 in
23:03 20.3 °F 11.5 °F 1013.1 in NW 1.8 mph 5.8 mph 57 % 0.0 in
23:04 20.3 °F 11.5 °F 1013.1 in NW 1.9 mph 5.8 mph 57 % 0.0 in
23:05 20.3 °F 11.8 °F 1013.1 in NW 2.3 mph 5.8 mph 58 % 0.0 in
23:06 20.3 °F 11.8 °F 1014.1 in NW 2.6 mph 5.8 mph 58 % 0.0 in
23:07 20.3 °F 11.8 °F 1014.1 in NW 2.3 mph 5.8 mph 58 % 0.0 in
23:08 20.3 °F 11.8 °F 1014.1 in NNW 2.7 mph 5.5 mph 58 % 0.0 in
23:09 20.3 °F 11.8 °F 1014.1 in NNW 2.4 mph 5.5 mph 58 % 0.0 in
23:10 20.3 °F 11.8 °F 1014.1 in NNW 2.1 mph 4.0 mph 58 % 0.0 in
23:11 20.2 °F 11.7 °F 1014.1 in NNW 1.6 mph 3.5 mph 58 % 0.0 in
23:12 20.2 °F 11.7 °F 1014.1 in North 1.1 mph 3.5 mph 58 % 0.0 in
23:13 20.2 °F 11.7 °F 1014.1 in North 1.1 mph 3.5 mph 58 % 0.0 in
23:14 20.2 °F 11.9 °F 1014.1 in North 0.8 mph 3.5 mph 59 % 0.0 in
23:15 20.1 °F 11.8 °F 1014.1 in North 0.6 mph 3.5 mph 59 % 0.0 in
23:16 20.1 °F 11.8 °F 1014.1 in North 0.5 mph 3.5 mph 59 % 0.0 in
23:17 20.1 °F 11.8 °F 1014.1 in NNE 0.5 mph 2.6 mph 59 % 0.0 in
23:18 20.1 °F 12.1 °F 1014.1 in NNE 0.2 mph 2.6 mph 60 % 0.0 in
23:19 20.0 °F 12.0 °F 1014.1 in NNE 0.2 mph 2.6 mph 60 % 0.0 in
23:20 20.0 °F 12.0 °F 1014.1 in NNE 0.2 mph 2.6 mph 60 % 0.0 in
23:21 20.0 °F 12.0 °F 1014.1 in NNE 0.2 mph 2.6 mph 60 % 0.0 in
23:22 20.0 °F 12.0 °F 1014.1 in North 0.2 mph   60 % 0.0 in
23:23 19.9 °F 11.9 °F 1014.1 in Calm     60 % 0.0 in
23:24 19.9 °F 11.9 °F 1014.1 in Calm   1.4 mph 60 % 0.0 in
23:25 19.9 °F 11.9 °F 1014.1 in Calm   1.4 mph 60 % 0.0 in
23:26 19.8 °F 12.1 °F 1014.1 in Calm   1.4 mph 61 % 0.0 in
23:27 19.8 °F 11.8 °F 1014.1 in Calm   1.4 mph 60 % 0.0 in
23:28 19.8 °F 11.8 °F 1014.1 in Calm   1.4 mph 60 % 0.0 in
23:29 19.8 °F 12.1 °F 1014.1 in Calm   1.4 mph 61 % 0.0 in
23:30 19.8 °F 12.1 °F 1014.1 in Calm   1.4 mph 61 % 0.0 in
23:31 19.8 °F 12.1 °F 1014.1 in Calm   1.4 mph 61 % 0.0 in
23:32 19.7 °F 11.9 °F 1014.1 in Calm   1.4 mph 61 % 0.0 in
23:33 19.7 °F 11.9 °F 1014.1 in Calm   1.4 mph 61 % 0.0 in
23:34 19.7 °F 11.9 °F 1014.1 in Calm     61 % 0.0 in
23:35 19.6 °F 11.9 °F 1014.1 in Calm     61 % 0.0 in
23:36 19.6 °F 11.9 °F 1015.1 in Calm     61 % 0.0 in
23:37 19.6 °F 12.1 °F 1015.1 in Calm     62 % 0.0 in
23:38 19.6 °F 12.1 °F 1015.1 in Calm     62 % 0.0 in
23:39 19.6 °F 12.1 °F 1015.1 in Calm     62 % 0.0 in
23:40 19.5 °F 12.0 °F 1015.1 in Calm     62 % 0.0 in
23:41 19.5 °F 12.0 °F 1015.1 in Calm     62 % 0.0 in
23:42 19.5 °F 12.0 °F 1015.1 in Calm     62 % 0.0 in
23:43 19.5 °F 12.3 °F 1015.1 in Calm     63 % 0.0 in
23:44 19.4 °F 12.2 °F 1015.1 in Calm     63 % 0.0 in
23:45 19.4 °F 12.2 °F 1015.1 in Calm     63 % 0.0 in
23:46 19.4 °F 12.2 °F 1015.1 in Calm     63 % 0.0 in
23:47 19.3 °F 12.1 °F 1015.1 in Calm   1.8 mph 63 % 0.0 in
23:48 19.3 °F 12.1 °F 1015.1 in Calm   1.8 mph 63 % 0.0 in
23:49 19.3 °F 12.3 °F 1015.1 in NNE 0.2 mph 1.8 mph 64 % 0.0 in
23:50 19.2 °F 12.2 °F 1015.1 in NNE 0.2 mph 1.8 mph 64 % 0.0 in
23:51 19.2 °F 12.2 °F 1014.1 in NNE 0.2 mph 1.8 mph 64 % 0.0 in
23:52 19.2 °F 12.2 °F 1014.1 in NNE 0.2 mph 1.8 mph 64 % 0.0 in
23:53 19.2 °F 12.2 °F 1014.1 in NNE 0.2 mph 1.8 mph 64 % 0.0 in
23:54 19.1 °F 12.4 °F 1014.1 in NNE 0.2 mph 1.8 mph 65 % 0.0 in
23:55 19.1 °F 12.4 °F 1014.1 in NNE 0.3 mph 1.8 mph 65 % 0.0 in
23:56 19.1 °F 12.4 °F 1014.1 in NNE 0.3 mph 1.8 mph 65 % 0.0 in
23:57 19.0 °F 12.3 °F 1014.1 in NNE 0.3 mph 1.8 mph 65 % 0.0 in
23:58 19.0 °F 12.3 °F 1014.1 in North 0.3 mph   65 % 0.0 in
23:59 19.0 °F 12.3 °F 1014.1 in North 0.2 mph   65 % 0.0 in
Vremenska postaja Senovo
Podatki zbrani iz Weather Underground - 3.5 mb

Script developed by  Jim McMurry - jmcmurry@mwt.net Adapted for the template by  Wim van der Kuil - Leuven-Template.eu

Vremenski podatki so objavljeni na:

European Weather Network

WeatherCloud

Weather Underground

AWEKAS

HAMweather, WeatherForYou, PWS Weather

MapView

Geostik

Slovenia weather network

Oprema, ki se uporablja:

Vremenski program
Cumulus

Vremenski server
Asus

Cumulus

Asus